"Pseudo-MPEC" for P12oEGq

Created 2026 Aug 7 2:35:05 UT using Find_Orb

Click here for an explanation of pseudo-MPECs

 
 Astrometry: 
     P12oEGq*0C2026 07 25.57843323 58 46.361-06 37 33.95   ~7RJZ 21.79wXNEOCPF51
     P12oEGq 0C2026 07 25.58907123 58 47.011-06 37 34.33   ~7RJZ 21.83wXNEOCPF51
     P12oEGq 0C2026 07 25.61049123 58 48.298-06 37 33.97   ~7RJZ 21.86wXNEOCPF51

Station data:
(F51) Pan-STARRS 1, Haleakala  (N20.707234 W156.255910)  US/Hawaii.
   Observers J. Herman, T. Lowe, P. Minguez, A. Schultz, I. Smith. Measurers
   K. Chambers, T. de Boer, J. Fairlamb, H. Gao, M. Huber, C.-C. Lin, E.
   Magnier, Y. Ramanjooloo, R. Wainscoat, R. Weryk. 1.8-m Ritchey-Chrétien +
   CCD.

Orbital elements:  P12oEGq
   Perihelion 2026 Oct 4.819488 +/- 54.6 TT = 19:40:03.8 (JD 2461318.319488)
Epoch 2026 Jul 26.0 TT = JDT 2461247.5   Earth MOID: 0.0287   Ve: 0.0331
M 310.644199324 +/- 46              Me: 0.0281   Ma: 0.0116      AutoNEOCP
n   0.696923993 +/- 0.583           Peri.  119.386559 +/- 90
a   1.259928127 +/- 0.702           Node   355.397585 +/- 60
e   0.86180830 +/- 0.269            Incl.    4.233705 +/- 42
P   1.414/516.546d         H 20.70  G  0.15   U 12.4  SR
q 0.174111608 +/- 0.654    Q 2.345744646 +/- 35.3         (J2000 ecliptic)
From 3 observations 2026 July 25 (46.2 min); mean residual 0".13
Residuals in arcseconds: 
260725 F51  .05-  .16+    260725 F51  .07+  .24-    260725 F51  .04-  .07+    

Ephemerides (geocentric):
Date (UTC) HH   RA             Dec           delta  r     elong  mag " sig PA
---- --------  ------------   ------------  ------ ------ -----  --- --------
2026 08 07 03  00 15 40.162   -07 09 46.75  .33341 1.2653 133.0 20.3  66d  94
2026 08 07 04  00 15 44.669   -07 10 03.22  .33265 1.2648 133.0 20.3  66d  94
2026 08 07 05  00 15 49.190   -07 10 19.78  .33188 1.2642 133.1 20.3  66d  95
2026 08 07 06  00 15 53.724   -07 10 36.45  .33112 1.2637 133.1 20.3  66d  95
2026 08 07 07  00 15 58.273   -07 10 53.23  .33036 1.2631 133.1 20.3  66d  95
2026 08 07 08  00 16 02.835   -07 11 10.11  .32959 1.2626 133.1 20.3  66d  95
2026 08 07 09  00 16 07.412   -07 11 27.10  .32883 1.2620 133.1 20.3  66d  95
2026 08 07 10  00 16 12.002   -07 11 44.20  .32807 1.2615 133.2 20.2  66d  95
2026 08 07 11  00 16 16.607   -07 12 01.40  .32730 1.2609 133.2 20.2  66d  95
2026 08 07 12  00 16 21.226   -07 12 18.72  .32654 1.2604 133.2 20.2  66d  95
2026 08 07 13  00 16 25.860   -07 12 36.14  .32578 1.2598 133.2 20.2  66d  95
2026 08 07 14  00 16 30.508   -07 12 53.67  .32501 1.2593 133.3 20.2  66d  95
2026 08 07 15  00 16 35.171   -07 13 11.32  .32425 1.2587 133.3 20.2  66d  95
2026 08 07 16  00 16 39.849   -07 13 29.07  .32349 1.2582 133.3 20.2  66d  95
2026 08 07 17  00 16 44.542   -07 13 46.94  .32273 1.2576 133.3 20.2  66d  95
2026 08 07 18  00 16 49.250   -07 14 04.92  .32196 1.2571 133.3 20.2  66d  95
2026 08 07 19  00 16 53.973   -07 14 23.01  .32120 1.2565 133.4 20.2  66d  95
2026 08 07 20  00 16 58.712   -07 14 41.21  .32044 1.2560 133.4 20.2  66d  95
2026 08 07 21  00 17 03.465   -07 14 59.53  .31968 1.2554 133.4 20.2  66d  95
2026 08 07 22  00 17 08.235   -07 15 17.97  .31892 1.2548 133.4 20.2  66d  95
2026 08 07 23  00 17 13.020   -07 15 36.52  .31815 1.2543 133.4 20.2  66d  95
2026 08 08 00  00 17 17.821   -07 15 55.19  .31739 1.2537 133.5 20.2  66d  95
2026 08 08 01  00 17 22.637   -07 16 13.98  .31663 1.2532 133.5 20.2  66d  95
2026 08 08 02  00 17 27.470   -07 16 32.89  .31587 1.2526 133.5 20.2  66d  95
2026 08 08 03  00 17 32.319   -07 16 51.91  .31511 1.2521 133.5 20.1  66d  95
2026 08 08 04  00 17 37.184   -07 17 11.05  .31435 1.2515 133.6 20.1  66d  95
2026 08 08 05  00 17 42.066   -07 17 30.32  .31359 1.2510 133.6 20.1  66d  95
2026 08 08 06  00 17 46.964   -07 17 49.71  .31282 1.2504 133.6 20.1  66d  95
2026 08 08 07  00 17 51.878   -07 18 09.21  .31206 1.2499 133.6 20.1  66d  95
2026 08 08 08  00 17 56.810   -07 18 28.84  .31130 1.2493 133.6 20.1  66d  95
2026 08 08 09  00 18 01.758   -07 18 48.60  .31054 1.2488 133.7 20.1  66d  95
2026 08 08 10  00 18 06.724   -07 19 08.48  .30978 1.2482 133.7 20.1  66d  95
2026 08 08 11  00 18 11.706   -07 19 28.48  .30902 1.2476 133.7 20.1  66d  95
2026 08 08 12  00 18 16.707   -07 19 48.61  .30826 1.2471 133.7 20.1  66d  95
2026 08 08 13  00 18 21.724   -07 20 08.87  .30750 1.2465 133.7 20.1  66d  95
2026 08 08 14  00 18 26.759   -07 20 29.26  .30674 1.2460 133.8 20.1  66d  95
2026 08 08 15  00 18 31.812   -07 20 49.77  .30598 1.2454 133.8 20.1  66d  95
2026 08 08 16  00 18 36.883   -07 21 10.41  .30522 1.2449 133.8 20.1  66d  95
2026 08 08 17  00 18 41.972   -07 21 31.18  .30446 1.2443 133.8 20.1  66d  95
2026 08 08 18  00 18 47.078   -07 21 52.09  .30370 1.2437 133.8 20.1  66d  95
2026 08 08 19  00 18 52.204   -07 22 13.12  .30294 1.2432 133.9 20.0  66d  95
2026 08 08 20  00 18 57.348   -07 22 34.29  .30218 1.2426 133.9 20.0  66d  94
2026 08 08 21  00 19 02.510   -07 22 55.59  .30142 1.2421 133.9 20.0  66d  94
2026 08 08 22  00 19 07.691   -07 23 17.03  .30066 1.2415 133.9 20.0  66d  94
2026 08 08 23  00 19 12.891   -07 23 38.60  .29991 1.2410 133.9 20.0  67d  94
2026 08 09 00  00 19 18.110   -07 24 00.31  .29915 1.2404 134.0 20.0  67d  94
2026 08 09 01  00 19 23.349   -07 24 22.15  .29839 1.2398 134.0 20.0  67d  94
2026 08 09 02  00 19 28.607   -07 24 44.14  .29763 1.2393 134.0 20.0  67d  94